| time (UTC) | temp F | wind direction | speed MPH | gust MPH | rain 1hr in | rain 24hr in | rain mn in | humidity % | barometer mb |
| 20260502123013 | 47 | 96 | 0.0 | 0.0 | 0.00 | 0.00 | 0.00 | 56 | 1018.6 |
| 20260502121553 | 46 | 73 | 0.0 | 0.0 | 0.00 | 0.00 | 0.00 | 59 | 1018.6 |
| 20260502114533 | 47 | 70 | 0.0 | 0.0 | 0.00 | 0.00 | 0.00 | 56 | 1018.7 |
| 20260502113031 | 48 | 114 | 0.0 | 0.0 | 0.00 | 0.00 | 0.00 | 54 | 1018.7 |
| 20260502111513 | 48 | 101 | 0.0 | 0.0 | 0.00 | 0.00 | 0.00 | 53 | 1018.7 |
| 20260502110011 | 48 | 104 | 0.0 | 0.0 | 0.00 | 0.00 | 0.00 | 53 | 1018.8 |
| 20260502104553 | 48 | 48 | 0.0 | 0.0 | 0.00 | 0.00 | 0.00 | 54 | 1018.8 |
| 20260502103058 | 48 | 50 | 0.0 | 0.0 | 0.00 | 0.00 | 0.00 | 53 | 1018.8 |
| 20260502101538 | 48 | 88 | 0.0 | 2.0 | 0.00 | 0.00 | 0.00 | 53 | 1018.7 |
| 20260502080103 | 52 | 228 | 0.0 | 0.0 | 0.00 | 0.00 | 0.00 | 42 | 1019.1 |
| 20260502070031 | 53 | 272 | 0.0 | 0.0 | 0.00 | 0.00 | 0.00 | 43 | 1019.2 |
| 20260502064549 | 53 | 250 | 0.0 | 3.0 | 0.00 | 0.00 | 0.00 | 44 | 1019.2 |
| 20260502063017 | 52 | 167 | 0.0 | 0.0 | 0.00 | 0.00 | 0.00 | 46 | 1019.2 |
| 20260502061513 | 52 | 10 | 0.0 | 0.0 | 0.00 | 0.00 | 0.00 | 47 | 1019.1 |
| 20260502060055 | 52 | 98 | 0.0 | 5.0 | 0.00 | 0.00 | 0.00 | 46 | 1019.2 |
| 20260502054558 | 52 | 66 | 0.0 | 0.0 | 0.00 | 0.00 | 0.00 | 46 | 1019.1 |
| 20260502053039 | 53 | 263 | 0.0 | 1.0 | 0.00 | 0.00 | 0.00 | 44 | 1019.0 |
| 20260502051540 | 54 | 339 | 0.0 | 1.0 | 0.00 | 0.00 | 0.00 | 43 | 1019.1 |
| 20260502050024 | 55 | 252 | 0.0 | 0.0 | 0.00 | 0.00 | 0.00 | 42 | 1019.1 |
| 20260502044525 | 55 | 208 | 0.0 | 0.0 | 0.00 | 0.00 | 0.00 | 42 | 1019.2 |
| 20260502043002 | 55 | 182 | 0.0 | 0.0 | 0.00 | 0.00 | 0.00 | 41 | 1019.3 |
| 20260502041502 | 55 | 221 | 0.0 | 0.0 | 0.00 | 0.00 | 0.00 | 41 | 1019.3 |
| 20260502040054 | 55 | 212 | 0.0 | 1.0 | 0.00 | 0.00 | 0.00 | 41 | 1019.2 |
| 20260502034544 | 55 | 215 | 0.0 | 0.0 | 0.00 | 0.00 | 0.00 | 42 | 1019.2 |
| 20260502033026 | 55 | 216 | 0.0 | 0.0 | 0.00 | 0.00 | 0.00 | 44 | 1019.1 |
| 20260502031525 | 55 | 219 | 0.0 | 1.0 | 0.00 | 0.00 | 0.00 | 44 | 1019.0 |
| 20260502030007 | 56 | 219 | 0.0 | 0.0 | 0.00 | 0.00 | 0.00 | 46 | 1018.9 |
| 20260502024507 | 56 | 119 | 0.0 | 0.0 | 0.00 | 0.00 | 0.00 | 47 | 1018.9 |
| 20260502023054 | 58 | 202 | 0.0 | 0.0 | 0.00 | 0.00 | 0.00 | 46 | 1018.8 |
| 20260502021549 | 58 | 202 | 0.0 | 0.0 | 0.00 | 0.00 | 0.00 | 46 | 1018.8 |
| 20260502020031 | 59 | 202 | 0.0 | 0.0 | 0.00 | 0.00 | 0.00 | 44 | 1018.8 |
| 20260502014545 | 60 | 248 | 0.0 | 0.0 | 0.00 | 0.00 | 0.00 | 42 | 1018.8 |
| 20260502013013 | 61 | 225 | 0.0 | 0.0 | 0.00 | 0.00 | 0.00 | 37 | 1018.8 |
| 20260502011514 | 62 | 172 | 0.0 | 0.0 | 0.00 | 0.00 | 0.00 | 36 | 1018.8 |
| 20260502010056 | 62 | 325 | 0.0 | 0.0 | 0.00 | 0.00 | 0.00 | 35 | 1019.0 |
| 20260502004601 | 63 | 249 | 0.0 | 0.0 | 0.00 | 0.00 | 0.00 | 35 | 1019.0 |
| 20260502003038 | 62 | 231 | 0.0 | 0.0 | 0.00 | 0.00 | 0.00 | 36 | 1019.1 |
| 20260502001606 | 63 | 260 | 0.0 | 0.0 | 0.00 | 0.00 | 0.00 | 36 | 1019.2 |
| 20260502000019 | 63 | 104 | 0.0 | 0.0 | 0.00 | 0.00 | 0.00 | 35 | 1019.2 |
| 20260501234519 | 63 | 77 | 0.0 | 0.0 | 0.00 | 0.00 | 0.00 | 34 | 1019.3 |
| 20260501233002 | 64 | 122 | 0.0 | 0.0 | 0.00 | 0.00 | 0.00 | 33 | 1019.4 |
| 20260501231501 | 64 | 236 | 0.0 | 0.0 | 0.00 | 0.00 | 0.00 | 32 | 1019.4 |
| 20260501230044 | 64 | 219 | 0.0 | 0.0 | 0.00 | 0.00 | 0.00 | 30 | 1019.7 |
| 20260501224556 | 64 | 275 | 0.0 | 0.0 | 0.00 | 0.00 | 0.00 | 28 | 1019.7 |
| 20260501223026 | 64 | 239 | 0.0 | 0.0 | 0.00 | 0.00 | 0.00 | 26 | 1020.0 |
| 20260501221526 | 64 | 99 | 0.0 | 0.0 | 0.00 | 0.00 | 0.00 | 26 | 1020.0 |
| 20260501220007 | 64 | 111 | 0.0 | 0.0 | 0.00 | 0.00 | 0.00 | 25 | 1020.1 |
| 20260501214506 | 62 | 4 | 0.0 | 0.0 | 0.00 | 0.00 | 0.00 | 24 | 1020.3 |
| 20260501213051 | 63 | 206 | 0.0 | 0.0 | 0.00 | 0.00 | 0.00 | 22 | 1020.6 |
| 20260501211550 | 63 | 275 | 0.0 | 0.0 | 0.00 | 0.00 | 0.00 | 24 | 1020.6 |
| 20260501210033 | 63 | 86 | 0.0 | 0.0 | 0.00 | 0.00 | 0.00 | 25 | 1020.5 |
| 20260501204527 | 63 | 322 | 0.0 | 0.0 | 0.00 | 0.00 | 0.00 | 29 | 1020.7 |
| 20260501203013 | 63 | 135 | 0.0 | 0.0 | 0.00 | 0.00 | 0.00 | 29 | 1020.7 |
| 20260501201508 | 63 | 34 | 0.0 | 0.0 | 0.00 | 0.00 | 0.00 | 31 | 1020.8 |
| 20260501200049 | 63 | 167 | 0.0 | 0.0 | 0.00 | 0.00 | 0.00 | 31 | 1020.8 |
| 20260501194548 | 62 | 204 | 0.0 | 0.0 | 0.00 | 0.00 | 0.00 | 30 | 1020.9 |
| 20260501193030 | 61 | 229 | 0.0 | 0.0 | 0.00 | 0.00 | 0.00 | 31 | 1020.9 |
| 20260501191528 | 61 | 203 | 0.0 | 0.0 | 0.00 | 0.00 | 0.00 | 32 | 1020.9 |
| 20260501190009 | 61 | 227 | 0.0 | 0.0 | 0.00 | 0.00 | 0.00 | 34 | 1020.9 |
| 20260501184511 | 61 | 49 | 0.0 | 0.0 | 0.00 | 0.00 | 0.00 | 33 | 1021.1 |
| 20260501183051 | 60 | 30 | 0.0 | 0.0 | 0.00 | 0.00 | 0.00 | 35 | 1021.1 |
| 20260501181550 | 60 | 227 | 0.0 | 0.0 | 0.00 | 0.00 | 0.00 | 35 | 1021.1 |
| 20260501180039 | 60 | 246 | 0.0 | 0.0 | 0.00 | 0.00 | 0.00 | 35 | 1021.0 |
| 20260501174534 | 60 | 200 | 0.0 | 0.0 | 0.00 | 0.00 | 0.00 | 36 | 1021.1 |
| 20260501173018 | 61 | 246 | 0.0 | 0.0 | 0.00 | 0.00 | 0.00 | 39 | 1021.1 |
| 20260501171514 | 58 | 191 | 0.0 | 0.0 | 0.00 | 0.00 | 0.00 | 36 | 1021.1 |
| 20260501170052 | 58 | 235 | 0.0 | 0.0 | 0.00 | 0.00 | 0.00 | 39 | 1021.2 |
| 20260501164556 | 57 | 208 | 0.0 | 0.0 | 0.00 | 0.00 | 0.00 | 39 | 1021.1 |
| 20260501163028 | 57 | 212 | 0.0 | 0.0 | 0.00 | 0.00 | 0.00 | 43 | 1021.0 |
| 20260501161525 | 57 | 246 | 0.0 | 0.0 | 0.00 | 0.00 | 0.00 | 41 | 1020.3 |
| 20260501160005 | 56 | 230 | 0.0 | 0.0 | 0.00 | 0.00 | 0.00 | 44 | 1019.9 |
| 20260501154606 | 56 | 223 | 0.0 | 0.0 | 0.00 | 0.00 | 0.00 | 43 | 1021.0 |
| 20260501153048 | 55 | 237 | 0.0 | 0.0 | 0.00 | 0.00 | 0.00 | 45 | 1021.0 |
| 20260501151548 | 54 | 237 | 0.0 | 0.0 | 0.00 | 0.00 | 0.00 | 48 | 1020.9 |
| 20260501150027 | 53 | 167 | 0.0 | 0.0 | 0.00 | 0.00 | 0.00 | 48 | 1020.9 |